DMSP 5D-2 F13 DEB, 40673

Orbit data source: Space-Track

DMSP 5D-2 F13 DEB, 40673 is space debris in SSO originally from a launch on Fri, 24 Mar 1995 UTC launched from the Air Force Western Test Range (AFWTR). Debris objects in space refer to the collection of defunct objects orbiting the Earth. Examples of debris include non-operational satellites, rocket bodies, and fragments generated from explosions, collisions, or faulty payload assembly.

Loading next visibility...
Identifier
40673, 1995-015FM
Orbit
SSO
Last TLE update
3 days ago
Origin
Manufacturer
Unknown
Mission
Spacecraft
Bus & Motor
Unknown
Mass
Unknown
Launch date (UTC)
1995-03-24 (30 years ago)
Launch vehicle
Unknown
Launch site
Air Force Western Test Range (AFWTR)
Object type
Payload
Rocket body
Debris
Shape & HBR
Unknown
Radar Cross Section
Small (<0.1 m²)

Expand to show TLE details & history

TLE from 3 days ago
0 DMSP 5D-2 F13 DEB
1 40673U 95015FM  25189.28316317  .00000281  00000-0  14599-3 0  9998
2 40673  98.7114 204.6686 0022159 304.4692  55.4392 14.22260452531848
Epoch: 2025-07-08T06:47Z
TLE epoch observation values (Epoch: 2025-07-08T06:47:45.297Z)
Latitude
-0.00007°
Longitude
176.2495°
Altitude
811.612 km
Speed
7.452 km/s
True Right ascension
13h 38m 40s
True Declination
0° 00' 00"
Sunlit
Object was in daylight at epoch
Visualization orbit readout
Latitude
-0.0596°
Longitude
-0.59736°
Altitude
827.418 km
Speed
7.436 km/s
Apparent Right ascension
04h 27m 45s
Apparent Declination
-47° 17' 02"
Sunlit
Object is in daylight
Visualization observer readout
Local Sidereal Time
23:55:14
Azimuth
139.059° SSE
Elevation
-16.118°
Doppler factor
1
Orbital elements
Apogee altitude
830.813 km
Perigee altitude
798.935 km
Semi-major axis
7,193.011 km
Eccentricity
0.00222
Inclination
98.7114°
RAAN
204.6686°
Arg. of periapsis
304.4692°
True anomaly
Unknown
Mean anomaly
55.4392°
Eccentric anomaly
Unknown
Mean motion
3.55776 °/min
Orbital period
101.19 mins
BSTAR
0.00014599
Loading maneuver chart data...
Loading SW <> Apogee altitude chart data...

DMSP 5D-2 F13 DEB Visibility forecast

Observer location: undefined°, undefined°

Span
Click to sort rows by Start time (UTC) header in descending order
Start Az.
Max El. time (UTC)
Max El. Az.
Max El.
End time (UTC)
End Az.
8 mins2025-07-11 13:03:10.774Z37.937° NE2025-07-11 13:07:10.774Z87.54° E25.288°2025-07-11 13:11:10.774Z147.468° SSE
8 mins2025-07-11 14:44:10.774Z347.731° N2025-07-11 14:47:10.774Z302.58° NW30.042°2025-07-11 14:52:10.774Z228.57° WSW
8 mins2025-07-12 00:25:10.774Z133.312° SE2025-07-12 00:29:10.774Z58.005° ENE34.206°2025-07-12 00:33:10.774Z2.615° NNE
6 mins2025-07-12 02:06:10.774Z226.211° WSW2025-07-12 02:09:10.774Z269.346° W21.234°2025-07-12 02:12:10.774Z309.562° NW
|